Location: Unspecified
(18.3124°N, 0.0000°E)
Time: 02:57:36
(UTC+00:00)

Vanguard 2 Rocket - All Passes

Search period start: 04 April 2026 00:00
Search period end: 14 April 2026 00:00
Orbit: 554 x 3286 km, 32.9° (Epoch: 29 March)

Date Brightness Start Highest point End Pass type
(mag) Time Alt. Az. Time Alt. Az. Time Alt. Az.
4 Apr - 00:06:09 10° NW 00:08:32 15° NNW 00:10:51 10° NNE night (unlit)
4 Apr - 02:19:58 10° NNW 02:22:39 15° NNE 02:25:49 10° NE visible
4 Apr - 04:30:33 10° NW 04:35:56 55° NNE 04:45:10 10° ESE visible
4 Apr - 06:42:26 10° WNW 06:49:50 49° SSW 07:02:45 10° SE daylight
4 Apr - 08:59:01 10° WSW 09:06:25 18° SSW 09:16:00 10° S daylight
4 Apr - 18:30:13 10° S 18:36:31 17° SSE 18:41:12 10° ESE visible
4 Apr - 20:43:07 10° SW 20:50:54 61° SSE 20:55:40 10° ENE visible
4 Apr - 22:59:24 10° W 23:03:27 24° NNW 23:06:48 10° NNE night (unlit)
5 Apr - 01:15:56 10° NNW 01:17:13 11° N 01:18:34 10° NNE night (unlit)
5 Apr - 03:26:37 10° NW 03:30:53 32° NNE 03:37:13 10° E visible
5 Apr - 05:37:43 10° WNW 05:44:01 69° SSW 05:55:22 10° SE daylight
5 Apr - 07:51:51 10° WSW 07:59:20 25° SSW 08:10:16 10° SSE daylight
5 Apr - 17:25:56 10° S 17:29:59 12° SSE 17:33:28 10° SE daylight
5 Apr - 19:36:41 10° SW 19:45:35 39° SSE 19:51:00 10° E visible
5 Apr - 21:52:29 10° WSW 21:58:37 46° NNW 22:02:49 10° NE visible
6 Apr - 00:10:10 10° NNW 00:11:46 12° N 00:13:20 10° NNE night (unlit)
6 Apr - 02:22:47 10° NNW 02:25:49 18° NNE 02:29:30 10° ENE visible
6 Apr - 04:33:24 10° WNW 04:38:42 77° NNE 04:47:54 10° ESE visible
6 Apr - 06:46:00 10° W 06:52:51 33° SSW 07:03:52 10° SSE daylight
6 Apr - 09:07:13 10° SW 09:09:53 11° SSW 09:12:46 10° SSW daylight
6 Apr - 18:30:22 10° SSW 18:39:45 28° SSE 18:45:50 10° E visible
6 Apr - 20:45:26 10° WSW 20:53:46 85° NNW 20:58:43 10° ENE visible
6 Apr - 23:03:05 10° WNW 23:06:30 18° NNW 23:09:23 10° NNE night (unlit)
7 Apr - 01:18:57 10° NNW 01:20:31 12° N 01:22:09 10° NNE night (unlit)
7 Apr - 03:29:22 10° NW 03:33:45 43° NNE 03:40:27 10° E visible
7 Apr - 05:40:57 10° W 05:46:55 47° SSW 05:57:08 10° SE daylight
7 Apr - 07:57:05 10° WSW 08:02:37 16° SSW 08:09:43 10° S daylight
7 Apr - 17:24:23 10° SSW 17:33:22 20° SSE 17:39:46 10° ESE daylight
7 Apr - 19:38:21 10° SW 19:48:33 61° SSE 19:54:21 10° ENE visible
7 Apr - 21:55:42 10° W 22:01:30 32° NNW 22:05:32 10° NE visible
8 Apr - 00:13:59 10° NNW 00:15:03 11° N 00:16:05 10° NNE night (unlit)
8 Apr - 02:25:27 10° NNW 02:28:51 24° NNE 02:33:09 10° ENE visible
8 Apr - 04:36:23 10° WNW 04:41:31 72° SSW 04:50:16 10° SE visible
8 Apr - 06:50:12 10° WSW 06:56:00 21° SSW 07:04:22 10° SSE daylight
8 Apr - 16:19:16 10° S 16:26:22 15° SSE 16:32:07 10° SE daylight
8 Apr - 18:31:20 10° SW 18:42:50 42° SSE 18:49:36 10° E visible
8 Apr - 20:48:06 10° WSW 20:56:33 58° NNW 21:01:35 10° NE visible
8 Apr - 23:06:50 10° NW 23:09:38 15° NNW 23:12:04 10° NNE night (unlit)
9 Apr - 01:21:32 10° NNW 01:23:44 14° NNE 01:26:04 10° NE night (unlit)
9 Apr - 03:32:09 10° NW 03:36:34 66° NNE 03:43:24 10° ESE visible
9 Apr - 05:44:33 10° W 05:49:58 30° SSW 05:58:25 10° SSE daylight
9 Apr - 17:24:33 10° SSW 17:36:32 31° SSE 17:44:13 10° E daylight
9 Apr - 19:40:26 10° WSW 19:51:22 88° SSE 19:57:25 10° ENE visible
9 Apr - 21:59:08 10° WNW 22:04:26 24° NNW 22:08:16 10° NNE visible
10 Apr - 00:17:02 10° NNW 00:18:20 11° N 00:19:37 10° NNE night (unlit)
10 Apr - 02:28:05 10° NW 02:31:47 34° NNE 02:36:36 10° E visible
10 Apr - 04:39:36 10° W 04:44:27 44° SSW 04:52:15 10° SE visible
10 Apr - 06:55:55 10° SW 06:59:20 13° SSW 07:03:25 10° S daylight
10 Apr - 16:18:15 10° SSW 16:29:40 23° SSE 16:37:51 10° ESE daylight
10 Apr - 18:32:48 10° SW 18:45:44 61° SSE 18:52:55 10° ENE visible
10 Apr - 20:51:06 10° W 20:59:20 42° NNW 21:04:23 10° NE visible
10 Apr - 23:10:27 10° NW 23:12:52 13° N 23:15:00 10° NNE night (unlit)
11 Apr - 01:24:01 10° NNW 01:26:52 19° NNE 01:29:56 10° ENE night (unlit)
11 Apr - 03:35:05 10° WNW 03:39:24 76° SSW 03:46:01 10° SE visible
11 Apr - 05:48:53 10° WSW 05:53:10 18° SSW 05:58:57 10° SSE daylight
11 Apr - 15:12:56 10° S 15:22:12 16° SSE 15:29:46 10° ESE daylight
11 Apr - 17:25:23 10° SW 17:39:31 44° SSE 17:47:56 10° E daylight
11 Apr - 19:42:52 10° WSW 19:54:05 69° NNW 20:00:19 10° NE visible
11 Apr - 22:02:40 10° WNW 22:07:29 20° NNW 22:11:05 10° NNE visible
12 Apr - 00:19:32 10° NNW 00:21:38 13° N 00:23:37 10° NE night (unlit)
12 Apr - 02:30:46 10° NW 02:34:40 54° NNE 02:39:47 10° ESE visible
12 Apr - 04:43:14 10° W 04:47:31 26° SSW 04:53:43 10° SSE visible
12 Apr - 14:11:24 10° SSE 14:14:04 10° SSE 14:16:37 10° SE daylight
12 Apr - 16:18:24 10° SSW 16:32:44 33° SSE 16:42:13 10° E daylight
12 Apr - 18:34:39 10° SW 18:48:28 83° SSE 18:55:59 10° ENE visible
12 Apr - 20:54:19 10° W 21:02:10 33° NNW 21:07:10 10° NE visible
12 Apr - 23:13:38 10° NW 23:16:09 14° N 23:18:22 10° NNE night (unlit)
13 Apr - 01:26:30 10° NW 01:29:54 27° NNE 01:33:36 10° E night (unlit)
13 Apr - 03:38:15 10° W 03:42:20 42° SSW 03:48:12 10° SE visible
13 Apr - 15:12:07 10° SSW 15:25:23 24° SSE 15:35:21 10° ESE daylight
13 Apr - 17:26:41 10° SW 17:42:18 61° SSE 17:51:14 10° ENE daylight
13 Apr - 19:45:38 10° WSW 19:56:47 52° NNW 20:03:08 10° NE visible
13 Apr - 22:06:08 10° WNW 22:10:38 18° NNW 22:14:05 10° NNE visible
